Location: La Tine
(46.4708°N, 7.0525°E)
Time: 08:42:25
(UTC+00:00)

Cosmos 1833 Rocket - Pass Details

Date: 23 January 2021
Orbit: 833 x 839 km, 71.0° (Epoch: 24 February)

Event Time Altitude Azimuth Distance (km) Brightness Sun altitude
Rises 18:41:11 0° 334° (NNW) 3,392 6.1 -23.6°
Reaches altitude 10° 18:43:39 10° 337° (NNW) 2,454 5.3 -24.0°
Maximum altitude 18:49:17 72° 62° (ENE) 879 2.5 -25.0°
Enters shadow 18:49:48 67° 102° (ESE) 904 2.5 -25.1°
